Regional Weather Roundup
Issued by NWS Newport/Morehead, NC

Current Version | Previous Version | Graphics & Text | Print | Product List | Glossary Off
Versions: 1 2 3 4 5 6 7 8 9 10 11 12 13 14 15 16 17 18 19 20 21 22 23 24 25 26 27 28 29 30 31 32 33 34 35 36 37 38 39 40 41 42 43 44 45 46 47 48 49 50

000
ASUS42 KMHX 190210
RWRMHX
WEATHER ROUNDUP FOR EASTERN NORTH CAROLINA
NATIONAL WEATHER SERVICE NEWPORT/MOREHEAD CITY NC
900 PM EST THU DEC 18 2014

NOTE: "FAIR" INDICATES FEW OR NO CLOUDS BELOW 12,000 FEET
WITH NO SIGNIFICANT WEATHER AND/OR OBSTRUCTIONS TO VISIBILITY

NCZ015>017-031-032-045>047-102-103-190300-
NORTH COAST

CITY           SKY/WX    TMP DP  RH WIND       PRES   REMARKS
EDENTON          N/A     35  32  88 CALM      30.10F
ELIZABETH CITY PTCLDY    40  31  70 CALM      30.10F
KITTY HAWK     PTCLDY    40  32  74 CALM      30.10R
MANTEO         PTCLDY    42  35  75 SW6       30.11S

$$

NCZ045>047-081-094-103-104-190300-
CENTRAL COAST

CITY           SKY/WX    TMP DP  RH WIND       PRES   REMARKS
FRISCO         PTCLDY    34  32  92 CALM      30.10F
SWANQUARTER      N/A     37 N/A N/A CALM      30.06S

$$

NCZ095-097-098-100-101-190300-
SOUTHERN COAST

CITY           SKY/WX    TMP DP  RH WIND       PRES   REMARKS
BEAUFORT       PTCLDY    39  33  79 CALM      30.11S
CEDAR ISLAND     N/A     37 N/A N/A E1        30.12F
JACKSONVILLE   CLEAR     39  36  89 CALM      30.10S
PINEY ISLAND   PTCLDY    44  36  73 CALM      30.10S
WILMINGTON     CLEAR     40  36  86 CALM      30.11R


$$

NCZ011>013-027>030-043-044-078>080-089-090>093-098-190300-
COASTAL PLAIN

CITY           SKY/WX    TMP DP  RH WIND       PRES   REMARKS
AHOSKIE        CLOUDY    36  32  87 CALM      30.11S
CLINTON        CLEAR     37  34  90 CALM      30.11S
ELIZABETHTOWN  CLEAR     39  33  78 CALM      30.10S
GOLDSBORO      PTCLDY    38  38  97 CALM      30.09S
GREENVILLE     CLEAR     36  34  93 CALM      30.12S
HAVELOCK       PTCLDY    39  34  82 CALM      30.12S
KENANSVILLE    CLEAR     33  32  96 CALM      30.11S
KINSTON        CLEAR     34  32  93 CALM      30.11F
NEW BERN       CLEAR     38  32  79 CALM      30.12S
RICHLANDS      CLEAR     36  30  80 CALM      30.11F
ROCKY MOUNT    PTCLDY    38  34  85 CALM      30.11S
WASHINGTON     CLEAR     35  32  88 CALM      30.11S
WHITEVILLE     CLEAR     40  34  77 CALM      30.10S

$$

AMZ130-135-150-152-154-156-158-170-250-252-270-ANZ085-086-088-633-658-670-190300-
MARINE OBSERVATIONS

STATION/POSITION TIME  TEMP    WIND        PRES    WAVE   SWELL
                       AIR SEA DIR/SP/G            HT/PER HT/PER
                 (UTC) (F)     (DEG/KT/KT) (MB)    (FT/S) (FT/S)
CHESAPEAKE LIGHT 0100   41     360/  9/ 10 1020.2
64 E VA BEACH    0200   44 55  330/ 12/ 17 1018.3    4/ 5   2/ 7
DUCK             0200   43 48   CALM  /  2 1018.6
2 E DUCK         0200      48                N/A     3/ 6
10 NE DUCK       0200      51                N/A     3/ 6
OREGON INLET     0200   44 51  220/  5/  6 1019.5
13E OREGON INLT  0200      53                N/A     3/ 6
HATTERAS CG      0200   44 55   50/  3/  3 1019.6
DIAMOND BUOY     0200   46                 1019.7    3/ 7
17 S OCRACOKE    NOT AVBL
CAPE LOOKOUT     0100   47      10/  6/  6 1019.2
BEAUFORT LAB     0200   44 53   40/  4/  5 1018.2
30 SE NEW RIVER  0200   52 60   30/  6/  8 1019.7    2/10   2/10
5 SE WRIGHTSVLE  0100   49 55   60/  4/  6 1019.1
225 S CAPE HAT   0102   68 72  270/  2/  4 1018.1    3/ 6   3/ 6
41 SE CHARLESTON 0200   61 72  280/  6/ 10 1018.8    2/ 5   2/ 5

$$


USA.gov is the U.S. government's official web portal to all federal, state and local government web resources and services.